Weather History for KNID - September, 2013

Change the Weather History Date:

Monday, September 16, 2013

  Actual Average Record
Temperature  
Mean Temperature 82 °F -  
Max Temperature 99 °F 91 °F 102 °F (2014)
Min Temperature 66 °F 63 °F 52 °F (2007)
Cooling Degree Days 18    
Growing Degree Days 32 (Base 50)    
Moisture  
Dew Point 38 °F    
Average Humidity 21    
Maximum Humidity 42    
Minimum Humidity 11    
Precipitation  
Precipitation 0.00 in - - ()
Sea Level Pressure  
Sea Level Pressure 29.76 in    
Wind  
Wind Speed 8 mph (South)    
Max Wind Speed 18 mph    
Max Gust Speed 26 mph    
Visibility 10 miles    
Events      
Averages and records for this station are not official NWS values.
T = Trace of Precipitation, MM = Missing Value Source: NWS Daily Summary

Daily Weather History Graph

Daily Weather History Graph

Search for Another Location

Airport or City:

Trip Planner

Search our weather history database for the weather conditions in past years. The results will help you decide how hot, cold, wet, or windy it might be!

Date:

Astronomy

Sep. 16, 2013 Rise Set
Actual Time 6:34 AM PDT 6:55 PM PDT
Civil Twilight 6:08 AM PDT 7:21 PM PDT
Nautical Twilight 5:38 AM PDT 7:51 PM PDT
Astronomical Twilight 5:08 AM PDT 8:21 PM PDT
Moon 5:04 PM PDT (9/16) 3:30 AM PDT (9/16)
Length of Visible Light 13h 12m
Length of Day
12h 21m
Waxing Gibbous, 91% of the Moon is Illuminated
Sep 16
Waxing Gibbous
Sep 19
Full
Sep 26
Last Quarter
Oct 4
New
Oct 11
First Quarter

Hourly Weather History & Observations

Time (PDT) Temp. Dew Point Humidity Pressure Visibility Wind Dir Wind Speed Gust Speed Precip Events Conditions
12:56 AM 82.0 °F 39.9 °F 22% 29.75 in 10.0 mi South 11.5 mph - N/A   Unknown
1:56 AM 78.1 °F 42.1 °F 28% 29.76 in 10.0 mi South 9.2 mph - N/A   Unknown
2:56 AM 75.9 °F 39.9 °F 27% 29.77 in 10.0 mi Calm Calm - N/A   Unknown
3:56 AM 73.0 °F 42.1 °F 33% 29.77 in 10.0 mi Calm Calm - N/A   Unknown
4:56 AM 70.0 °F 41.0 °F 35% 29.78 in 10.0 mi South 3.5 mph - N/A   Unknown
5:56 AM 69.1 °F 43.0 °F 39% 29.80 in 10.0 mi South 6.9 mph - N/A   Clear
6:56 AM 66.9 °F 43.0 °F 42% 29.82 in 10.0 mi SSW 5.8 mph - N/A   Clear
7:56 AM 73.9 °F 39.0 °F 28% 29.82 in 10.0 mi WSW 3.5 mph - N/A   Clear
8:56 AM 79.0 °F 39.9 °F 25% 29.84 in 10.0 mi Calm Calm - N/A   Clear
9:56 AM 84.9 °F 41.0 °F 21% 29.83 in 10.0 mi ESE 3.5 mph - N/A   Clear
10:56 AM 91.9 °F 41.0 °F 17% 29.82 in 10.0 mi SE 4.6 mph - N/A   Clear
11:56 AM 96.1 °F 37.0 °F 13% 29.80 in 10.0 mi SSW 9.2 mph 19.6 mph N/A   Clear
12:56 PM 97.0 °F 36.0 °F 12% 29.78 in 10.0 mi SSE 12.7 mph 26.5 mph N/A   Clear
1:56 PM 98.1 °F 36.0 °F 11% 29.76 in 10.0 mi South 15.0 mph 24.2 mph N/A   Clear
2:56 PM 97.0 °F 36.0 °F 12% 29.73 in 10.0 mi SSW 9.2 mph 20.7 mph N/A   Clear
3:56 PM 99.0 °F 35.1 °F 11% 29.70 in 10.0 mi South 16.1 mph 25.3 mph N/A   Clear
4:56 PM 98.1 °F 34.0 °F 11% 29.69 in 10.0 mi South 18.4 mph - N/A   Clear
5:56 PM 96.1 °F 34.0 °F 11% 29.69 in 10.0 mi South 18.4 mph 23.0 mph N/A   Clear
6:56 PM 91.9 °F 36.0 °F 14% 29.69 in 10.0 mi South 15.0 mph - N/A   Clear
7:56 PM 87.1 °F 36.0 °F 16% 29.71 in 10.0 mi South 10.4 mph - N/A   Clear
8:56 PM 84.0 °F 36.0 °F 18% 29.72 in 10.0 mi SSW 11.5 mph - N/A   Clear
9:56 PM 81.0 °F 37.0 °F 21% 29.73 in 10.0 mi South 11.5 mph - N/A   Unknown
10:56 PM 78.1 °F 37.0 °F 23% 29.73 in 10.0 mi South 9.2 mph - N/A   Clear
11:56 PM 78.1 °F 39.9 °F 25% 29.73 in 10.0 mi South 6.9 mph - N/A   Unknown